Weather History for Napakiak AP, Napakiak, AK, AK

Change the Weather History Date:

Monday, December 2, 2013

  Actual Average Record
Temperature  
Mean Temperature 11 °F -  
Max Temperature 21 °F - - ()
Min Temperature 1 °F - - ()
Degree Days  
Heating Degree Days 54    
Moisture  
Dew Point 10 °F    
Average Humidity 87    
Maximum Humidity 89    
Minimum Humidity 83    
Precipitation  
Precipitation 0.00 in - - ()
Sea Level Pressure  
Sea Level Pressure 30.50 in    
Wind  
Wind Speed 6 mph (ENE)    
Max Wind Speed 9 mph    
Max Gust Speed -    
Visibility 10 miles    
Events      
T = Trace of Precipitation, MM = Missing Value Source: NWS Daily Summary

Daily Weather History Graph

Daily Weather History Graph

Search for Another Location

Airport:

Trip Planner

Search our weather history database for the weather conditions in past years. The results will help you decide how hot, cold, wet, or windy it might be!

Date:

Astronomy

Dec. 02, 2013 Rise Set
Actual Time 10:31 AM AKST 4:42 PM AKST
Civil Twilight 9:35 AM AKST 5:39 PM AKST
Nautical Twilight 8:38 AM AKST 6:36 PM AKST
Astronomical Twilight 7:46 AM AKST 7:27 PM AKST
Moon 9:59 AM AKST (12/2) 5:06 PM AKST (12/2)
Length of Visible Light 8h 04m
Length of Day
6h 10m
Waning Crescent, 0% of the Moon is Illuminated
Dec 2
Waning Crescent
Dec 2
New
Dec 9
First Quarter
Dec 17
Full
Dec 25
Last Quarter

Hourly Weather History & Observations

Time (AKST) Temp. Windchill Dew Point Humidity Pressure Visibility Wind Dir Wind Speed Gust Speed Precip Events Conditions
12:56 AM 1.9 °F -5.6 °F -0.9 °F 88% 30.46 in 10.0 mi ENE 3.5 mph - N/A   Clear
1:56 AM 3.9 °F -8.2 °F 1.0 °F 88% 30.47 in 10.0 mi East 6.9 mph - N/A   Clear
3:56 AM 5.0 °F -5.6 °F 1.9 °F 87% 30.46 in 10.0 mi ENE 5.8 mph - N/A   Clear
4:56 AM 6.1 °F -2.8 °F 3.0 °F 87% 30.47 in 10.0 mi NE 4.6 mph - N/A   Clear
5:56 AM 8.1 °F 1.4 °F 3.9 °F 83% 30.47 in 10.0 mi ENE 3.5 mph - N/A   Clear
6:56 AM 8.1 °F -4.3 °F 5.0 °F 87% 30.49 in 10.0 mi East 8.1 mph - N/A   Clear
7:56 AM 10.0 °F -1.9 °F 7.0 °F 87% 30.48 in 10.0 mi ENE 8.1 mph - N/A   Scattered Clouds
8:56 AM 10.9 °F -0.8 °F 8.1 °F 88% 30.48 in 10.0 mi East 8.1 mph - N/A   Scattered Clouds
9:56 AM 10.9 °F 0.2 °F 8.1 °F 88% 30.49 in 10.0 mi East 6.9 mph - N/A   Partly Cloudy
10:56 AM 12.0 °F 2.7 °F 9.0 °F 88% 30.51 in 10.0 mi ENE 5.8 mph - N/A   Overcast
11:56 AM 12.9 °F 3.8 °F 10.0 °F 88% 30.51 in 10.0 mi ENE 5.8 mph - N/A   Overcast
12:56 PM 14.0 °F 3.9 °F 10.0 °F 84% 30.52 in 10.0 mi East 6.9 mph - N/A   Overcast
1:56 PM 15.1 °F 4.2 °F 10.9 °F 84% 30.51 in 10.0 mi ENE 8.1 mph - N/A   Overcast
2:56 PM 17.1 °F 6.6 °F 12.9 °F 84% 30.51 in 10.0 mi East 8.1 mph - N/A   Overcast
3:56 PM 18.0 °F 7.7 °F 15.1 °F 88% 30.51 in 10.0 mi East 8.1 mph - N/A   Overcast
4:56 PM 18.0 °F 7.7 °F 15.1 °F 88% 30.50 in 10.0 mi ENE 8.1 mph - N/A   Overcast
5:56 PM 19.0 °F 8.2 °F 15.1 °F 85% 30.51 in 10.0 mi East 9.2 mph - N/A   Overcast
6:56 PM 19.0 °F 8.2 °F 16.0 °F 88% 30.51 in 10.0 mi ENE 9.2 mph - N/A   Mostly Cloudy
7:56 PM 19.9 °F 10.1 °F 17.1 °F 89% 30.51 in 10.0 mi East 8.1 mph - N/A   Overcast
8:56 PM 19.9 °F 10.1 °F 17.1 °F 89% 30.52 in 10.0 mi East 8.1 mph - N/A   Overcast
9:56 PM 21.0 °F 12.4 °F 18.0 °F 88% 30.52 in 10.0 mi East 6.9 mph - N/A   Overcast
10:56 PM 21.0 °F 12.4 °F 18.0 °F 88% 30.52 in 10.0 mi East 6.9 mph - N/A   Overcast
11:56 PM 21.0 °F 12.4 °F 18.0 °F 88% 30.53 in 10.0 mi East 6.9 mph - N/A   Overcast